Wetterdaten Herbst 2014

Datum T max T min Regen
01.09.2014 15.9 °C 11.7 °C 0.2 mm
02.09.2014 17.8 °C 12 °C 0.4 mm
03.09.2014 17.2 °C 13.4 °C 0 mm
04.09.2014 19.2 °C 14.6 °C 0 mm
05.09.2014 23.6 °C 13.7 °C 0 mm
06.09.2014 24.2 °C 14.7 °C 0 mm
07.09.2014 24.1 °C 13.3 °C 0 mm
08.09.2014 24.5 °C 15.6 °C 0 mm
09.09.2014 22.7 °C 14.9 °C 0 mm
10.09.2014 19.3 °C 11.7 °C 0 mm
11.09.2014 15.7 °C 10.5 °C 3 mm
12.09.2014 13.6 °C 11.3 °C 20.6 mm
13.09.2014 15.9 °C 12.9 °C 1.4 mm
14.09.2014 19.8 °C 13.6 °C 0.2 mm
15.09.2014 19.5 °C 11.3 °C 0 mm
16.09.2014 22.7 °C 11.4 °C 0 mm
17.09.2014 23.8 °C 11.1 °C 0 mm
18.09.2014 23.6 °C 14.1 °C 1.2 mm
19.09.2014 23.4 °C 14.6 °C 13.6 mm
20.09.2014 22.9 °C 15 °C 0 mm
21.09.2014 19.5 °C 13.4 °C 18.6 mm
22.09.2014 13.3 °C 7.7 °C 1.2 mm
23.09.2014 13.9 °C 5.2 °C 0 mm
24.09.2014 16.2 °C 4.7 °C 0 mm
25.09.2014 16.2 °C 10.6 °C 0.2 mm
26.09.2014 17.9 °C 9.9 °C 0 mm
27.09.2014 19.9 °C 11.8 °C 0.2 mm
28.09.2014 21.4 °C 8.6 °C 0 mm
29.09.2014 22.8 °C 11.9 °C 0 mm
30.09.2014 19.2 °C 14 °C 1.2 mm
01.10.2014 20.1 °C 11.9 °C 0 mm
02.10.2014 20.2 °C 10.1 °C 0.2 mm
03.10.2014 19.8 °C 8.4 °C 0 mm
04.10.2014 16.2 °C 6.6 °C 0 mm
05.10.2014 17.9 °C 8.6 °C 0 mm
06.10.2014 16.4 °C 9.5 °C 0 mm
07.10.2014 18.7 °C 10.4 °C 1 mm
08.10.2014 19.6 °C 12.3 °C 0.6 mm
09.10.2014 25.2 °C 13.8 °C 0.2 mm
10.10.2014 17.2 °C 14.1 °C 1.4 mm
11.10.2014 18.7 °C 12.4 °C 1.2 mm
12.10.2014 19.3 °C 11.2 °C 0 mm
13.10.2014 16.7 °C 12.3 °C 0.6 mm
14.10.2014 20.2 °C 11.2 °C 0 mm
15.10.2014 17.7 °C 10.6 °C 1 mm
16.10.2014 17.3 °C 13.4 °C 2.2 mm
17.10.2014 16.9 °C 11.7 °C 19.2 mm
18.10.2014 20.1 °C 8.1 °C 0 mm
19.10.2014 22.5 °C 9.3 °C 0 mm
20.10.2014 18.2 °C 13.3 °C 0.8 mm
21.10.2014 17.6 °C 8.3 °C 3.2 mm
22.10.2014 8.3 °C 6 °C 0.2 mm
23.10.2014 11.4 °C 6.3 °C 0 mm
24.10.2014 13.3 °C 3.1 °C 0 mm
25.10.2014 13.2 °C 6.4 °C 0.8 mm
26.10.2014 15.8 °C 8.3 °C 0 mm
27.10.2014 13 °C 3.9 °C 0 mm
28.10.2014 9.7 °C 3.3 °C 0 mm
29.10.2014 12.9 °C 4.7 °C 0 mm
30.10.2014 14.2 °C 8.6 °C 0.6 mm
31.10.2014 16.6 °C 8.3 °C 0 mm
01.11.2014 16.1 °C 8.1 °C 0.2 mm
02.11.2014 14.9 °C 5.2 °C 0 mm
03.11.2014 17.6 °C 6.8 °C 0 mm
04.11.2014 14.2 °C 8.6 °C 0 mm
05.11.2014 9.6 °C 6.8 °C 16.4 mm
06.11.2014 8.8 °C 3.3 °C 1.2 mm
07.11.2014 10.1 °C 1.4 °C 0 mm
08.11.2014 12.4 °C 4.2 °C 0 mm
09.11.2014 11.2 °C 3.1 °C 0 mm
10.11.2014 8.8 °C 5.5 °C 1 mm
11.11.2014 9.3 °C 2.8 °C 0 mm
12.11.2014 8.1 °C 4.9 °C 2.6 mm
13.11.2014 10.2 °C 8.1 °C 1.2 mm
14.11.2014 11.9 °C 7.1 °C 0 mm
15.11.2014 10.8 °C 4.9 °C 5.2 mm
16.11.2014 11.1 °C 7.2 °C 13.4 mm
17.11.2014 9.3 °C 5.2 °C 0 mm
18.11.2014 7.4 °C 4.4 °C 7 mm
19.11.2014 7.7 °C 4.3 °C 5.4 mm
20.11.2014 7 °C 2.9 °C 0 mm
21.11.2014 8.2 °C 3.2 °C 0.2 mm
22.11.2014 12.5 °C 4.3 °C 0 mm
23.11.2014 11.9 °C 1.4 °C 0 mm
24.11.2014 9.9 °C 5.1 °C 0 mm
25.11.2014 9.3 °C 6.8 °C 0 mm
26.11.2014 7.2 °C 5.2 °C 0 mm
27.11.2014 8.3 °C 5.2 °C 0 mm
28.11.2014 5.3 °C 3.2 °C 0 mm
29.11.2014 3.8 °C 2.9 °C 0 mm
30.11.2014 3.3 °C 2.4 °C 0 mm
 Hinweis zur Datenqualität
∅ Temperatur

11.8 °C

Abweichung vom Mittel

+1.5 °C

Niederschlag

149 mm

Abweichung vom Mittel

97 %

25.2 °C

Lufttemperatur
09.10.2014

1029 hPa

Luftdruck
02.10.2014

38.5 km/h

Windböen
21.10.2014

149 mm

Niederschlag
 

1.4 °C

Lufttemperatur
07.11.2014

1.7 °C

Bodentemperatur 5cm
01.01.1970

994 hPa

Luftdruck
04.11.2014
 Hinweis zur Datenqualität